{"data":{"norad_id":69965,"intl_designator":"2026-157Y","name":"STARLINK-37840","alt_names":[],"object_type":"PAYLOAD","status":"ACTIVE","operator":null,"country":"US","launch_date":"2026-07-09","launch_site_code":"AFETR","launch_vehicle":null,"mission":null,"orbit_class":"UNKNOWN","rcs_meters":null,"size_class":null,"mass_kg":null,"dimensions":null,"purposes":["comms"],"wikipedia_slug":null,"has_3d_model":false,"image_url":null,"decayed_at":null,"tle_current":{"epoch":"2026-09-19T17:12:26.318592Z","epoch_age_seconds":85441,"freshness":"FRESH","line1":"1 69965U 26157Y   26262.71697128  .00019343  00000+0  58191-3 0  9991","line2":"2 69965  53.1577 337.3185 0001288  86.1374 273.9776 15.34412568 11252","mean_motion":15.34412568,"eccentricity":0.0001288,"inclination_deg":53.1577,"raan_deg":337.3185,"arg_perigee_deg":86.1374,"mean_anomaly_deg":273.9776,"bstar":0.00058191,"rev_number":1125,"period_min":93.846989397183,"perigee_km":461.78479030581,"apogee_km":463.54698112917,"semimajor_km":6840.8028857175,"source":"CELESTRAK","updated_at":"2026-09-20T09:00:44.303464Z"}}}